User: anonymous   Login
Location: Unspecified
(0.0000°N, 0.0000°E)
Time: 07:46:25
(UTC+00:00)
Language:

Nimbus 6 - Orbit

View from above orbital plane
View from above orbital plane
View from above satellite
View from above satellite

Ground track
Ground track

The orbit data is extracted from the following two-line orbital elements,

1  7924U 75052A   18112.75511503 -.00000043 +00000-0 +56621-5 0  9994
2  7924 100.2088 358.2451 0007653 194.7766 207.2926 13.40709069097139
Epoch (UTC): 22 April 2018 18:07:21
Eccentricity: 0.0007653
inclination: 100.2088°
perigee height: 1101 km
apogee height: 1112 km
right ascension of ascending node: 358.2451°
argument of perigee: 194.7766°
revolutions per day: 13.40709069
mean anomaly at epoch: 207.2926°
orbit number at epoch: 9713

The dashed part of the orbit path shows where the satellite is in the earth's shadow,  

DLR